NOAA NWS Hourly Roundups by Site

Regional Weather Roundup for Bismarck, ND

To Select Another Site Choose from List

Select Site:  

000
ASUS43 KBIS 021502
RWRBIS

NWR BROADCAST TEXT
NATIONAL WEATHER SERVICE BISMARCK ND
1000 AM CDT THU JUL 02 2020

NOTE: "FAIR" INDICATES FEW OR NO CLOUDS BELOW 12,000 FEET WITH NO
SIGNIFICANT WEATHER AND/OR OBSTRUCTIONS TO VISIBILITY.


CITY           SKY/WX    TMP DP  RH WIND       PRES   REMARKS
WILLISTON      FAIR      74  51  44 SW15      29.81R
MINOT          MOSUNNY   78  60  53 S23G33    29.85R
MINOT AFB      CLOUDY    75  62  62 S12       29.83R
BISMARCK       SUNNY     82  62  50 S16G24    29.91S
DICKINSON      SUNNY     74  57  55 S17       29.89R
GARRISON         N/A     76  60  57 S17G25    29.87R
HETTINGER ARPT MOSUNNY   75  55  49 S16       29.92R
JAMESTOWN      SUNNY     81  68  64 S20G29    29.99R
CARRINGTON     FAIR      79  68  69 S15G22    29.98S
HAZEN          FAIR      81  61  50 S18G26    29.89R
MANDAN         FAIR      79  64  61 S16G26    29.92S
OAKES          FAIR      79  79 100 S17       30.02S
RUGBY          FAIR      79  64  61 S16G24    29.89R
STANLEY        FAIR      72  61  68 S16       29.84S
TIOGA          FAIR      72  61  68 SW7       29.83R
WATFORD CITY   FAIR      75  55  50 SW9       29.82R
$$

CITY           SKY/WX    TMP DP  RH WIND       PRES   REMARKS
GRAND FORKS    SUNNY     80  71  74 S16G23    29.99R
GRAND FORKS AF SUNNY     80  76  85 S14       30.00R
DEVILS LAKE    SUNNY     78  66  66 S15       29.97R
FARGO          SUNNY     80  72  76 S10       30.02S
CANDO          FAIR      77  68  73 S18G26    29.96S
CAVALIER       FAIR      77  72  83 S8        29.98R
GRAFTON        FAIR      79  73  83 S12       30.01R
GWINNER        SUNNY     81  79  94 S12G18    30.02F
LANGDON        FAIR      81  73  78 S14G22    29.99R
ROLLA          FAIR      77  64  65 SE22G29   29.92S
WALHALLA       FAIR      79  77  94 SE9       29.97S
$$

CITY           SKY/WX    TMP DP  RH WIND       PRES   REMARKS
ABERDEEN         N/A     82  70  66 S20G25    30.02R
MOBRIDGE       SUNNY     80  60  50 S15G25    29.94F
BUFFALO          N/A     79  55  43 VRB3      29.90R
RAPID CITY     SUNNY     78  61  55 S23G36    29.96S
GLASGOW        MOSUNNY   67  51  56 N9        29.84R
SIDNEY         SUNNY    N/A N/A N/A W10       29.81R
WOLF POINT     PTSUNNY   59  53  80 W6        29.83R
GLENDIVE       SUNNY     76  49  38 W12       29.85R
MILES CITY     MOSUNNY   70  50  49 W13       29.87R
BAKER          SUNNY     79  43  27 W8        29.90R
$$

CITY           SKY/WX    TMP DP  RH WIND       PRES   REMARKS
BILLINGS       MOSUNNY   60  44  55 S7        29.94R
GREAT FALLS    SUNNY     60  36  40 SW25G35   29.87R
$$



 

View Past Reports for Bismarck, ND.

Products Courtesy of NOAA-NWS
NWS Information Parsing Script by Ken True at Saratoga Weather - Script by SE Lincoln Weather.